This demonstration page uses our WeatherBlox Daily Observations layout. Learn more.

Hourly Observations for August 11, 2016

Temp ( °F °C ) Dew Point ( °F °C ) Humidity (%) Winds ( mph kmh ) Pressure ( in mb ) Visibility ( mi km ) Precip ( " mm )
12:15 am 00:15 Clear 80 26.7 70 21 71 71 SSE 13 20 29.68 1005 10 16.09344 0 0
12:35 am 00:35 Clear 79 26.1 70 21 74 74 SSE 12 19 29.68 1005 10 16.09344 0 0
12:55 am 00:55 Clear 79 26 69 20.8 73 73 SSE 10 17 29.68 1005 10 16.09344 0 0
1:15 am 01:15 Clear 79 26 69 20.5 72 72 SSE 12 19 29.68 1005 10 16.09344 0 0
1:35 am 01:35 Clear 78 25.6 69 20.5 73 73 S 8 13 29.68 1005 10 16.09344 0 0
1:55 am 01:55 Partly Cloudy 77 25.1 69 20.5 76 76 SSW 6 9 29.74 1007 10 16.09344 0 0
2:15 am 02:15 Clear 77 25.1 69 20.5 76 76 S 9 15 29.68 1005 10 16.09344 0 0
2:35 am 02:35 Clear 77 25 69 20.5 76 76 S 8 13 29.71 1006 10 16.09344 0 0
2:55 am 02:55 Clear 76 24.3 69 20.5 79 79 S 8 13 29.71 1006 10 16.09344 0 0
3:15 am 03:15 Clear 75 23.9 69 20.5 81 81 SSE 7 11 29.71 1006 10 16.09344 0 0
3:35 am 03:35 Clear 74 23.4 69 20.5 84 84 S 7 11 29.71 1006 10 16.09344 0 0
3:55 am 03:55 Clear 74 23.3 69 20.5 84 84 SSE 6 9 29.71 1006 10 16.09344 0 0
4:15 am 04:15 Clear 74 23.2 68 20.2 83 83 Calm 29.71 1006 10 16.09344 0 0
4:35 am 04:35 Clear 74 23.2 68 20.1 83 83 Calm 29.71 1006 10 16.09344 0 0
4:55 am 04:55 Clear 74 23.3 68 20 82 82 Calm 29.71 1006 10 16.09344 0 0
5:15 am 05:15 Clear 74 23.4 67 19.6 79 79 SE 5 7 29.71 1006 10 16.09344 0 0
5:35 am 05:35 Clear 72 22 67 19.5 86 86 ENE 6 9 29.71 1006 10 16.09344 0 0
5:55 am 05:55 Clear 70 21.2 67 19.7 91 91 E 5 7 29.74 1007 7 11.265408 0 0
6:15 am 06:15 Clear 71 21.4 67 19.5 89 89 Calm 29.74 1007 10 16.09344 0 0
6:35 am 06:35 Clear 68 20.2 66 18.9 92 92 ESE 3 6 29.74 1007 7 11.265408 0 0
6:55 am 06:55 Sunny 69 20.6 67 19.3 92 92 NE 3 6 29.74 1007 7 11.265408 0 0
7:15 am 07:15 Sunny with Mist and Fog 69 20.7 67 19.5 93 93 Calm 29.74 1007 5 8.04672 0 0
7:35 am 07:35 Sunny 70 21 67 19.7 92 92 Calm 29.74 1007 7 11.265408 0 0
7:55 am 07:55 Sunny 74 23.1 69 20.3 84 84 ESE 7 11 29.71 1006 10 16.09344 0 0
8:15 am 08:15 Sunny 75 24 68 20.2 79 79 SE 8 13 29.71 1006 10 16.09344 0 0
8:35 am 08:35 Sunny 75 24 69 20.7 82 82 NW 6 9 29.74 1007 10 16.09344 0 0
8:55 am 08:55 Sunny 75 23.9 70 21 84 84 Calm 29.74 1007 10 16.09344 0 0
9:15 am 09:15 Sunny 76 24.7 70 21 80 80 WNW 6 9 29.74 1007 10 16.09344 0 0
9:35 am 09:35 Sunny 79 26.1 70 21 74 74 NW 5 7 29.71 1006 10 16.09344 0 0
9:55 am 09:55 Sunny 80 26.8 69 20.6 69 69 W 6 9 29.71 1006 10 16.09344 0 0
10:15 am 10:15 Sunny 81 27 69 20.8 69 69 WNW 6 9 29.71 1006 10 16.09344 0 0
10:35 am 10:35 Sunny 82 27.5 70 20.9 67 67 WNW 3 6 29.71 1006 10 16.09344 0 0
10:55 am 10:55 Sunny 84 28.9 69 20.6 61 61 NW 8 13 29.71 1006 10 16.09344 0 0
11:15 am 11:15 Sunny 83 28.3 68 19.8 60 60 N 3 6 29.71 1006 10 16.09344 0 0
11:35 am 11:35 Sunny 83 28.3 69 20.7 63 63 Calm 29.71 1006 10 16.09344 0 0
11:55 am 11:55 Sunny 83 28.5 69 20.5 62 62 Calm 29.71 1006 10 16.09344 0 0
12:15 pm 12:15 Sunny 84 28.9 68 20.1 59 59 SE 3 6 29.71 1006 10 16.09344 0 0
12:35 pm 12:35 Sunny 85 29.2 69 20.6 60 60 S 3 6 29.68 1005 10 16.09344 0 0
12:55 pm 12:55 Sunny with Light Rain 84 28.7 70 21.3 64 64 SSE 6 9 29.71 1006 10 16.09344 0 0
1:15 pm 13:15 Sunny 84 29 69 20.7 61 61 SSE 6 9 29.68 1005 10 16.09344 0 0
1:35 pm 13:35 Partly Cloudy 82 27.9 72 22.1 71 71 S 5 7 29.74 1007 10 16.09344 0 0
1:55 pm 13:55 Mostly Cloudy with Light Rain 81 27.3 73 23 77 77 S 3 6 29.77 1008 7 11.265408 0 0
2:15 pm 14:15 Partly Cloudy with Light Drizzle 82 27.6 74 23.5 78 78 SW 5 7 29.77 1008 10 16.09344 0 0
2:35 pm 14:35 Sunny 82 28 73 22.6 73 73 Calm 29.74 1007 10 16.09344 0 0
2:55 pm 14:55 Partly Cloudy with Light Rain 82 27.5 74 23.2 77 77 SE 5 7 29.74 1007 10 16.09344 0 0
3:15 pm 15:15 Partly Cloudy with Light Rain 82 27.5 74 23.2 77 77 SSE 5 7 29.74 1007 10 16.09344 0 0
3:35 pm 15:35 Partly Cloudy 81 27 73 22.9 78 78 SE 3 6 29.74 1007 10 16.09344 0 0
3:55 pm 15:55 Sunny 81 27 75 23.8 83 83 Calm 29.74 1007 10 16.09344 0 0
4:15 pm 16:15 Sunny 81 27 75 24 84 84 Calm 29.74 1007 10 16.09344 0 0
4:35 pm 16:35 Sunny 80 26.6 75 23.7 84 84 Calm 29.74 1007 10 16.09344 0 0
4:55 pm 16:55 Sunny 80 26.7 76 24.3 87 87 Calm 29.74 1007 10 16.09344 0 0
5:15 pm 17:15 Sunny 81 27.2 74 23.4 80 80 Calm 29.74 1007 10 16.09344 0 0
5:35 pm 17:35 Sunny 81 27.4 75 24 82 82 SW 3 6 29.74 1007 10 16.09344 0 0
5:55 pm 17:55 Sunny 84 29.1 74 23.4 71 71 S 6 9 29.68 1005 10 16.09344 0 0
6:15 pm 18:15 Sunny 84 29 73 22.5 68 68 SSE 3 6 29.65 1004 10 16.09344 0 0
6:35 pm 18:35 Sunny 84 29 71 21.6 64 64 Calm 29.65 1004 10 16.09344 0 0
6:55 pm 18:55 Sunny 84 29 72 22.1 66 66 Calm 29.65 1004 10 16.09344 0 0
7:15 pm 19:15 Sunny with Nearby Thunderstorms 84 29.1 72 22.2 66 66 Calm 29.65 1004 10 16.09344 0 0
7:35 pm 19:35 Sunny 84 28.7 71 21.8 66 66 Calm 29.71 1006 10 16.09344 0 0
7:55 pm 19:55 Sunny 81 27 74 23.1 79 79 NNE 12 19 29.74 1007 10 16.09344 0 0
8:15 pm 20:15 Partly Cloudy 76 24.6 65 18.5 69 69 NNE 6 9 29.77 1008 10 16.09344 0 0
8:35 pm 20:35 Sunny 74 23.5 65 18.5 74 74 Calm 29.77 1008 10 16.09344 0 0
8:55 pm 20:55 Clear 73 22.6 66 18.8 79 79 E 6 9 29.77 1008 10 16.09344 0 0
9:15 pm 21:15 Clear 71 21.6 67 19.2 86 86 Calm 29.8 1009 10 16.09344 0 0
9:35 pm 21:35 Partly Cloudy 71 21.4 67 19.2 87 87 NNW 5 7 29.83 1010 10 16.09344 0 0
9:55 pm 21:55 Partly Cloudy 70 21 66 19.1 89 89 Calm 29.83 1010 10 16.09344 0 0
10:15 pm 22:15 Clear 69 20.8 66 18.8 88 88 WNW 5 7 29.83 1010 10 16.09344 0 0
10:35 pm 22:35 Clear 69 20.5 66 18.8 90 90 W 3 6 29.83 1010 10 16.09344 0 0
10:55 pm 22:55 Clear 69 20.3 66 18.7 91 91 W 3 6 29.83 1010 10 16.09344 0 0
11:15 pm 23:15 Clear 68 20 65 18.6 92 92 WNW 6 9 29.83 1010 10 16.09344 0 0
11:35 pm 23:35 Clear 68 20.2 65 18.3 89 89 NW 3 6 29.83 1010 10 16.09344 0 0
11:55 pm 23:55 Clear 67 19.5 64 17.9 91 91 NW 5 7 29.85 1011 10 16.09344 0 0

Powered by AerisWeather